This demonstration page uses our WeatherBlox Daily Observations layout. Learn more.

Left ArrowRight Arrow

36.19886, -115.1175

Hourly Observations for December 19, 2018

Temp ( °F °C ) Dew Point ( °F °C ) Humidity (%) Winds ( mph kmh ) Pressure ( in mb ) Visibility ( mi km ) Precip ( " mm )
12:53 am 00:53 Clear 45 7.2 28 -2.2 52 52 NW 10 17 30.24 1024 10 16.0934 N/A
1:53 am 01:53 Clear 48 8.9 28 -2.2 46 46 NNE 7 11 30.25 1025 10 16.0934 N/A
2:53 am 02:53 Clear 43 6.1 28 -2.2 56 56 SSW 3 6 30.28 1025 10 16.0934 N/A
3:53 am 03:53 Clear 43 6.1 27 -2.8 53 53 NNW 5 7 30.28 1025 10 16.0934 N/A
4:53 am 04:53 Clear 43 6.1 27 -2.8 53 53 NW 6 9 30.29 1026 10 16.0934 N/A
5:53 am 05:53 Clear 42 5.6 27 -2.8 55 55 N 5 7 30.32 1027 10 16.0934 N/A
6:53 am 06:53 Sunny 42 5.6 27 -2.8 55 55 NNW 3 6 30.34 1027 10 16.0934 N/A
7:53 am 07:53 Sunny 47 8.3 28 -2.2 48 48 NNW 6 9 30.34 1028 10 16.0934 N/A
8:53 am 08:53 Sunny 52 11.1 28 -2.2 40 40 N 5 7 30.36 1028 10 16.0934 N/A
9:53 am 09:53 Sunny 55 12.8 29 -1.7 37 37 N N/A 30.37 1028 10 16.0934 N/A
10:53 am 10:53 Sunny 57 13.9 29 -1.7 34 34 N N/A 30.34 1027 10 16.0934 N/A
11:53 am 11:53 Sunny 60 15.6 29 -1.7 31 31 N N/A 30.3 1026 10 16.0934 N/A
12:53 pm 12:53 Sunny 62 16.7 29 -1.7 29 29 SE 5 7 30.28 1025 10 16.0934 N/A
1:53 pm 13:53 Sunny 64 17.8 30 -1.1 28 28 N N/A 30.26 1025 10 16.0934 N/A
2:53 pm 14:53 Sunny 65 18.3 30 -1.1 27 27 N N/A 30.25 1024 10 16.0934 N/A
3:53 pm 15:53 Sunny 64 17.8 30 -1.1 28 28 E 5 7 30.24 1024 10 16.0934 N/A
4:53 pm 16:53 Clear 62 16.7 30 -1.1 30 30 N N/A 30.25 1025 10 16.0934 N/A
5:53 pm 17:53 Clear 57 13.9 32 undefined 39 39 NW 5 7 30.27 1025 10 16.0934 N/A
6:53 pm 18:53 Clear 55 12.8 32 undefined 42 42 WNW 6 9 30.29 1026 10 16.0934 N/A
7:53 pm 19:53 Clear 50 10 31 -0.6 48 48 NW 5 7 30.29 1026 10 16.0934 N/A
8:53 pm 20:53 Clear 49 9.4 31 -0.6 50 50 N N/A 30.29 1026 10 16.0934 N/A
9:53 pm 21:53 Clear 46 7.8 30 -1.1 54 54 NW 5 7 30.3 1026 10 16.0934 N/A
10:53 pm 22:53 Clear 47 8.3 31 -0.6 54 54 NW 5 7 30.29 1026 10 16.0934 N/A
11:53 pm 23:53 Clear 45 7.2 30 -1.1 56 56 NNW 6 9 30.29 1026 10 16.0934 N/A

Powered by AerisWeather